Home > Weather > Weinfelden > Past weeks

Flag for Switzerland Weather for the Past 2 Weeks in Weinfelden, Thurgau, Switzerland

Now
45 °F

Light rain. Mostly cloudy.


Feels Like: 39 °F
Forecast: 41 / 48 °F
Wind: 12 mph from West

Location: Friedrichshafen Airport

Current Time: May 1, 2016 at 1:39:49 AM

Latest Report: May 1, 2016 at 12:57 AM


Visibility: N/A

Pressure: 29.92 "Hg

Humidity: 93%

Dew Point: 43 °F

Location of WeinfeldenLocation

Historic Weather in Weinfelden — Graph

°F

Weinfelden Temperature Yesterday

Maximum temperature yesterday: 66 °F (at 4:20 PM)
Minimum temperature yesterday: 37 °F (at 12:50 AM)
Average temperature yesterday: 51 °F

High & Low Weather Summary for the Past Weeks

 TemperatureHumidityPressure
High70 °F (Apr 22, 2:50 PM)100% (Apr 22, 3:50 AM)30.33 "Hg (Apr 22, 3:50 AM)
Low28 °F (Apr 28, 5:50 AM)28% (Apr 30, 4:50 PM)29.62 "Hg (Apr 16, 11:50 PM)
Average47 °F72%29.96 "Hg
* Reported Apr 15 11:20 PM — Apr 30 11:55 PM, Weinfelden, Weather by CustomWeather, © 2016

Note: Actual official high and low records may vary slightly from our data, if they occured in-between our weather recording intervals... More about our weather records

Advertising

Weinfelden Weather History for the Previous 24 Hours

Scroll right to see more
 ConditionsComfort  
Time TempWeatherWind HumidityBarometerVisibility
11:55 PM
Sat, Apr 30
45 °FRain showers. Mostly cloudy.10 mph93%29.92 "Hg4 mi
10:50 PM46 °FSprinkles. Mostly cloudy.8 mph93%29.95 "HgN/A
10:20 PM46 °FSprinkles. Mostly cloudy.13 mph93%29.92 "HgN/A
9:50 PM46 °FRain showers. Mostly cloudy.12 mph93%29.92 "Hg4 mi
9:20 PM48 °FRain showers. More clouds than sun.12 mph87%29.92 "Hg5 mi
8:50 PM48 °FRain showers. More clouds than sun.17 mph87%29.92 "Hg4 mi
8:20 PM50 °FSprinkles. More clouds than sun.18 mph76%29.89 "HgN/A
7:50 PM61 °FSunny.5 mph45%29.83 "Hg10 mi
7:20 PM63 °FSunny.7 mph39%29.83 "Hg10 mi
6:50 PM63 °FSunny.9 mph39%29.83 "Hg10 mi
6:20 PM64 °FSunny.9 mph37%29.83 "Hg10 mi
5:50 PM64 °FSunny.10 mph37%29.83 "Hg10 mi
5:20 PM64 °FSunny.8 mph40%29.86 "Hg10 mi
4:50 PM66 °FSunny.7 mph28%29.86 "Hg10 mi
4:20 PM66 °FSunny.8 mph35%29.86 "Hg10 mi
3:50 PM64 °FSunny.7 mph30%29.86 "Hg10 mi
3:20 PM64 °FSunny.8 mph32%29.89 "Hg10 mi
2:50 PM64 °FSunny.6 mph34%29.89 "Hg10 mi
2:20 PM64 °FPassing clouds.6 mph34%29.92 "HgN/A
1:50 PM64 °FSunny.5 mph37%29.92 "Hg10 mi
1:20 PM64 °FSunny.3 mph40%29.92 "Hg10 mi
12:50 PM63 °FSunny.3 mph37%29.92 "Hg10 mi
12:20 PM61 °FPassing clouds.5 mph45%29.95 "HgN/A
11:50 AM59 °FSunny.3 mph51%29.95 "Hg10 mi
11:20 AM57 °FSunny.3 mph55%29.98 "Hg10 mi
10:50 AM55 °FSunny.3 mph55%29.98 "Hg10 mi
10:20 AM54 °FSunny.1 mph63%30.01 "Hg10 mi
9:50 AM52 °FSunny.2 mph62%30.01 "Hg10 mi
9:20 AM50 °FSunny.2 mph71%30.01 "Hg10 mi
8:50 AM48 °FSunny.2 mph76%30.01 "Hg10 mi
8:20 AM46 °FSunny.1 mph76%30.04 "Hg10 mi
7:50 AM43 °FSunny.2 mph81%30.04 "Hg10 mi
7:20 AM41 °FSunny.No wind87%30.01 "Hg10 mi
6:50 AM37 °FClear.No wind93%30.01 "Hg10 mi
6:20 AM37 °FClear.2 mph87%30.01 "Hg10 mi
5:50 AM37 °FClear.No wind93%30.01 "Hg10 mi
5:20 AM39 °FClear.2 mph87%30.01 "Hg10 mi
4:50 AM39 °FClear.2 mph87%30.01 "Hg10 mi
4:20 AM37 °FClear.7 mph93%30.01 "Hg10 mi
3:50 AM37 °FClear.2 mph87%30.01 "Hg10 mi
2:50 AM37 °FClear.3 mph87%30.01 "Hg10 mi
1:50 AM37 °FClear.2 mph93%30.01 "Hg10 mi
1:20 AM37 °FChilly.No wind93%30.01 "HgN/A
Weather by CustomWeather, © 2016

See weather overviewHow to use our weather pages